Time,TemperatureF,DewpointF,PressureIn,WindDirection,WindDirectionDegrees,WindSpeedMPH,WindSpeedGustMPH,Humidity,HourlyPrecipIn,Conditions,Clouds,dailyrainin,SoftwareType,DateUTC
2013-03-29 17:53:00,73.6,41.9,28.50,East,87,3.1,3.1,32,0.00,,---,0.00,VWS V14.00,2013-03-29 22:53:00,
2013-03-29 17:55:00,73.4,41.8,28.50,ESE,109,3.6,5.4,32,0.00,,---,0.00,VWS V14.00,2013-03-29 22:55:00,
2013-03-29 18:00:00,73.0,41.5,28.50,East,100,5.4,5.4,32,0.00,,---,0.00,VWS V14.00,2013-03-29 23:00:00,
2013-03-29 18:05:00,72.9,41.3,28.47,ENE,62,4.0,5.4,32,0.00,,---,0.00,VWS V14.00,2013-03-29 23:05:00,
2013-03-29 18:10:00,72.7,41.2,28.47,NNE,24,8.3,8.3,32,0.00,,---,0.00,VWS V14.00,2013-03-29 23:10:00,
2013-03-29 18:15:00,72.5,41.8,28.47,East,88,3.1,3.1,33,0.00,,---,0.00,VWS V14.00,2013-03-29 23:15:00,
2013-03-29 18:20:00,72.0,41.3,28.47,ENE,75,5.4,5.4,33,0.00,,---,0.00,VWS V14.00,2013-03-29 23:20:00,
2013-03-29 18:25:00,71.8,41.2,28.47,ESE,120,3.6,4.0,33,0.00,,---,0.00,VWS V14.00,2013-03-29 23:25:00,
2013-03-29 18:30:00,71.4,40.8,28.47,East,89,3.1,5.8,33,0.00,,---,0.00,VWS V14.00,2013-03-29 23:30:00,
2013-03-29 18:35:00,71.1,41.3,28.47,ESE,120,3.1,5.4,34,0.00,,---,0.00,VWS V14.00,2013-03-29 23:35:00,
2013-03-29 18:40:00,71.1,41.3,28.47,ESE,108,3.1,5.4,34,0.00,,---,0.00,VWS V14.00,2013-03-29 23:40:00,
2013-03-29 18:46:00,70.9,41.9,28.47,ESE,116,3.1,5.4,35,0.00,,---,0.00,VWS V14.00,2013-03-29 23:46:00,
2013-03-29 18:51:00,70.5,41.6,28.47,East,84,2.7,5.8,35,0.00,,---,0.00,VWS V14.00,2013-03-29 23:51:00,
2013-03-29 18:56:00,70.2,41.3,28.47,ENE,73,3.1,4.0,35,0.00,,---,0.00,VWS V14.00,2013-03-29 23:56:00,
2013-03-29 19:01:00,69.4,42.1,28.47,NE,56,3.6,4.0,37,0.00,,---,0.00,VWS V14.00,2013-03-30 00:01:00,
2013-03-29 19:06:00,69.1,41.7,28.47,East,81,3.6,3.6,37,0.00,,---,0.00,VWS V14.00,2013-03-30 00:06:00,
2013-03-29 19:11:00,68.5,42.0,28.47,ENE,67,2.2,5.4,38,0.00,,---,0.00,VWS V14.00,2013-03-30 00:11:00,
2013-03-29 19:16:00,68.2,42.3,28.47,SE,125,3.1,3.6,39,0.00,,---,0.00,VWS V14.00,2013-03-30 00:16:00,
2013-03-29 19:21:00,68.0,42.8,28.47,SE,125,4.0,4.9,40,0.00,,---,0.00,VWS V14.00,2013-03-30 00:21:00,
2013-03-29 19:26:00,67.6,43.1,28.47,East,87,2.7,5.4,41,0.00,,---,0.00,VWS V14.00,2013-03-30 00:26:00,
2013-03-29 19:31:00,67.1,43.3,28.47,ESE,105,2.7,2.7,42,0.00,,---,0.00,VWS V14.00,2013-03-30 00:31:00,
2013-03-29 19:37:00,66.7,43.5,28.47,SE,142,3.6,6.3,43,0.00,,---,0.00,VWS V14.00,2013-03-30 00:37:00,
2013-03-29 19:42:00,66.4,43.8,28.47,ENE,72,3.1,3.6,44,0.00,,---,0.00,VWS V14.00,2013-03-30 00:42:00,
2013-03-29 19:47:00,66.0,44.1,28.47,SE,138,3.1,3.6,45,0.00,,---,0.00,VWS V14.00,2013-03-30 00:47:00,
2013-03-29 19:52:00,65.5,43.6,28.47,ESE,106,6.3,6.3,45,0.00,,---,0.00,VWS V14.00,2013-03-30 00:52:00,
2013-03-29 19:57:00,65.1,43.8,28.47,ESE,114,3.6,4.0,46,0.00,,---,0.00,VWS V14.00,2013-03-30 00:57:00,
2013-03-29 20:02:00,64.9,44.2,28.47,ENE,76,3.6,3.6,47,0.00,,---,0.00,VWS V14.00,2013-03-30 01:02:00,
2013-03-29 20:07:00,64.8,44.1,28.47,SE,124,2.7,4.0,47,0.00,,---,0.00,VWS V14.00,2013-03-30 01:07:00,
2013-03-29 20:12:00,64.4,43.8,28.47,East,91,3.1,3.1,47,0.00,,---,0.00,VWS V14.00,2013-03-30 01:12:00,
2013-03-29 20:17:00,64.0,44.5,28.47,ESE,106,3.6,3.6,49,0.00,,---,0.00,VWS V14.00,2013-03-30 01:17:00,
2013-03-29 20:22:00,63.9,44.3,28.47,ESE,119,2.7,4.0,49,0.00,,---,0.00,VWS V14.00,2013-03-30 01:22:00,
2013-03-29 20:27:00,63.7,44.7,28.47,ENE,68,4.0,5.8,50,0.00,,---,0.00,VWS V14.00,2013-03-30 01:27:00,
2013-03-29 20:32:00,63.3,44.9,28.47,East,97,2.2,4.0,51,0.00,,---,0.00,VWS V14.00,2013-03-30 01:32:00,
2013-03-29 20:38:00,63.1,45.2,28.47,ESE,114,6.7,6.7,52,0.00,,---,0.00,VWS V14.00,2013-03-30 01:38:00,
2013-03-29 20:43:00,62.8,44.9,28.47,ESE,102,4.0,4.0,52,0.00,,---,0.00,VWS V14.00,2013-03-30 01:43:00,
2013-03-29 20:48:00,62.6,45.2,28.47,ESE,123,4.0,4.0,53,0.00,,---,0.00,VWS V14.00,2013-03-30 01:48:00,
2013-03-29 20:53:00,62.2,45.4,28.47,SE,128,4.0,5.4,54,0.00,,---,0.00,VWS V14.00,2013-03-30 01:53:00,
2013-03-29 20:58:00,61.9,45.5,28.47,East,91,3.6,4.9,55,0.00,,---,0.00,VWS V14.00,2013-03-30 01:58:00,
2013-03-29 21:03:00,61.7,45.9,28.47,SE,139,3.1,8.3,56,0.00,,---,0.00,VWS V14.00,2013-03-30 02:03:00,
2013-03-29 21:08:00,61.3,45.5,28.47,ESE,106,5.4,7.6,56,0.00,,---,0.00,VWS V14.00,2013-03-30 02:08:00,
2013-03-29 21:13:00,61.2,45.8,28.47,ESE,120,2.7,5.4,57,0.00,,---,0.00,VWS V14.00,2013-03-30 02:13:00,
2013-03-29 21:18:00,60.8,45.5,28.47,SE,128,3.1,3.6,57,0.00,,---,0.00,VWS V14.00,2013-03-30 02:18:00,
2013-03-29 21:24:00,60.4,46.1,28.47,SE,137,4.0,5.4,59,0.00,,---,0.00,VWS V14.00,2013-03-30 02:24:00,
2013-03-29 21:29:00,60.3,46.3,28.47,SE,141,0.0,4.0,60,0.00,,---,0.00,VWS V14.00,2013-03-30 02:29:00,
2013-03-29 21:34:00,60.1,46.2,28.47,ESE,111,3.1,3.1,60,0.00,,---,0.00,VWS V14.00,2013-03-30 02:34:00,
2013-03-29 21:39:00,59.9,46.4,28.47,ESE,105,4.0,4.0,61,0.00,,---,0.00,VWS V14.00,2013-03-30 02:39:00,
2013-03-29 21:44:00,59.7,46.7,28.47,East,100,3.6,5.8,62,0.00,,---,0.00,VWS V14.00,2013-03-30 02:44:00,
2013-03-29 21:49:00,59.5,47.0,28.47,SE,131,3.6,4.0,63,0.00,,---,0.00,VWS V14.00,2013-03-30 02:49:00,
2013-03-29 21:54:00,59.4,47.2,28.47,East,82,2.7,3.6,64,0.00,,---,0.00,VWS V14.00,2013-03-30 02:54:00,
2013-03-29 21:59:00,59.2,47.0,28.47,ESE,116,3.6,4.0,64,0.00,,---,0.00,VWS V14.00,2013-03-30 02:59:00,
2013-03-29 22:04:00,59.2,47.8,28.47,East,87,3.1,4.9,66,0.00,,---,0.00,VWS V14.00,2013-03-30 03:04:00,
2013-03-29 22:09:00,59.2,47.8,28.47,SE,134,6.3,6.3,66,0.00,,---,0.00,VWS V14.00,2013-03-30 03:09:00,
2013-03-29 22:14:00,59.2,47.8,28.47,ESE,117,3.6,6.3,66,0.00,,---,0.00,VWS V14.00,2013-03-30 03:14:00,
2013-03-29 22:20:00,59.2,48.2,28.47,ESE,119,4.0,5.8,67,0.00,,---,0.00,VWS V14.00,2013-03-30 03:20:00,
2013-03-29 22:25:00,59.2,48.2,28.47,East,95,4.0,5.8,67,0.00,,---,0.00,VWS V14.00,2013-03-30 03:25:00,
2013-03-29 22:30:00,59.2,48.2,28.47,SE,133,4.9,6.3,67,0.00,,---,0.00,VWS V14.00,2013-03-30 03:30:00,
2013-03-29 22:35:00,59.2,48.2,28.47,ESE,123,6.3,8.3,67,0.00,,---,0.00,VWS V14.00,2013-03-30 03:35:00,
2013-03-29 22:40:00,59.2,48.2,28.47,SSE,147,3.6,5.4,67,0.00,,---,0.00,VWS V14.00,2013-03-30 03:40:00,
2013-03-29 22:45:00,59.2,48.2,28.47,SSE,149,8.3,8.3,67,0.00,,---,0.00,VWS V14.00,2013-03-30 03:45:00,
2013-03-29 22:50:00,59.0,48.1,28.47,ESE,121,3.6,6.3,67,0.00,,---,0.00,VWS V14.00,2013-03-30 03:50:00,
2013-03-29 22:55:00,59.0,48.1,28.47,SE,135,8.1,8.1,67,0.00,,---,0.00,VWS V14.00,2013-03-30 03:55:00,
2013-03-29 23:00:00,58.8,48.3,28.47,ESE,113,5.8,7.6,68,0.00,,---,0.00,VWS V14.00,2013-03-30 04:00:00,
2013-03-29 23:01:00,58.8,48.3,28.47,SE,134,3.6,5.8,68,0.00,,---,0.00,VWS V14.00,2013-03-30 04:01:00,
2013-03-29 23:06:00,58.6,48.1,28.44,South,169,6.3,6.3,68,0.00,,---,0.00,VWS V14.00,2013-03-30 04:06:00,
2013-03-29 23:11:00,58.5,48.3,28.44,ESE,119,5.4,5.4,69,0.00,,---,0.00,VWS V14.00,2013-03-30 04:11:00,
2013-03-29 23:16:00,58.3,48.5,28.44,SE,125,5.4,5.4,70,0.00,,---,0.00,VWS V14.00,2013-03-30 04:16:00,
2013-03-29 23:21:00,58.1,48.4,28.44,ESE,119,4.9,5.4,70,0.00,,---,0.00,VWS V14.00,2013-03-30 04:21:00,
2013-03-29 23:27:00,57.9,48.2,28.44,SE,133,6.3,7.2,70,0.00,,---,0.00,VWS V14.00,2013-03-30 04:27:00,
2013-03-29 23:32:00,57.9,48.6,28.44,East,93,4.9,8.1,71,0.00,,---,0.00,VWS V14.00,2013-03-30 04:32:00,
2013-03-29 23:37:00,57.7,48.4,28.47,SE,146,6.3,8.7,71,0.00,,---,0.00,VWS V14.00,2013-03-30 04:37:00,
2013-03-29 23:42:00,57.7,48.4,28.47,SE,133,6.7,6.7,71,0.00,,---,0.00,VWS V14.00,2013-03-30 04:42:00,
2013-03-29 23:47:00,57.7,48.4,28.47,SE,143,4.9,5.8,71,0.00,,---,0.00,VWS V14.00,2013-03-30 04:47:00,
2013-03-29 23:52:00,57.6,48.6,28.47,ESE,122,4.0,4.0,72,0.00,,---,0.00,VWS V14.00,2013-03-30 04:52:00,
2013-03-29 23:57:00,57.6,48.6,28.47,ESE,115,3.1,3.6,72,0.00,,---,0.00,VWS V14.00,2013-03-30 04:57:00,